Location: Madingley
(52.2167°N, 0.0500°E)
Time: 08:21:51
(UTC+00:00)

Cosmos 44 - Pass Details

Date: 15 May 2026
Orbit: 568 x 782 km, 65.1° (Epoch: 5 June)

Event Time Altitude Azimuth Distance (km) Brightness Sun altitude
Rises 20:49:26 0° 316° (NW) 3,274 9.4 -8.0°
Reaches altitude 10° 20:51:59 10° 323° (NW) 2,348 7.7 -8.3°
Maximum altitude 20:57:09 42° 34° (NE) 1,101 4.5 -8.8°
Drops below altitude 10° 21:02:11 10° 105° (ESE) 2,298 5.5 -9.3°
Enters shadow 21:02:45 - 108° (ESE) 2,497 5.6 -9.4°
